Showing default

THURAYA 4, 62483

Orbit data source: Space-Track

THURAYA 4, 62483 is an Emirian payload satellite in HEO that was launched on Sat, 04 Jan 2025 UTC via an FALCON 9 launch vehicle from the Air Force Eastern Test Range (AFETR). Payloads include a variety of satellites, spacecraft, and rockets equipped with specific instruments for various scientific and technological missions. These include communications satellites like Starlink; space stations such as the ISS; scientific satellites like the Hubble; Earth observation satellites from companies like Planet Labs, Umbra, and HawkEye 360; GPS; miniature CubeSats for education and research; and military/defense satellites.

Loading next visibility...
THURAYA 4 details
Identifier
62483, 2025-001A
Orbit
HEO
Last TLE update5 days ago
Origin
Flag of AESP42/THUR (AE / UAE)
ManufacturerADST/ADSUK
MissionOperational spacecraft
Bus & MotorEUROSTAR NEO, PPS-5000
Mass5,000 kg wet, ~5,000 kg dry
Launch date (UTC)
2025-01-04 (1 month ago)
Launch vehicle
FALCON 9
Launch site
Air Force Eastern Test Range (AFETR)
Object type
Payload
Rocket body
Debris
Shape & HBRUnknown
Radar Cross SectionLarge (>1 m²)

Expand to show TLE details & history

TLE from 5 days ago
0 THURAYA 4
1 62483U 25001A   25031.26288702 -.00000297  00000-0  00000+0 0  9995
2 62483  16.4825 317.3268 7356548 184.3363 161.0669  1.16876655   360
Epoch: 2025-01-31T06:18Z
Definitive object data (Epoch: 2025-01-31T06:18:33.438Z)
Latitude0.00009°
Longitude91.99911°
Altitude59,277.41 km
Speed1.293 km/s
True Right ascension21h 09m 27s
True Declination0° 00' 00"
Sunlit
Object was in daylight at TLE epoch
Visualization TLE readout
Latitude-5.91449°
Longitude71.03699°
Altitude44,791.484 km
Speed2.26 km/s
Apparent Right ascension19h 41m 21s
Apparent Declination-9° 31' 09"
Sunlit
Object is in daylight
Visualization observer readout
Local Sidereal Time06:56:49
Azimuth338.921° N
Elevation-58.028°
Doppler factor1
Orbital elements
Apogee altitude59,704.031 km
Perigee altitude3,686.367 km
Semi-major axis38,073.336 km
Eccentricity0.7356548
Inclination16.4825°
RAAN317.3268°
Arg. of periapsis184.3363°
True anomaly175.72093°
Mean anomaly161.0669°
Eccentric anomaly169.06357°
Mean motion0.29215 °/min
BSTARUnknown
Orbital period1232.23 mins
Loading maneuver chart data...
Loading historical data...
Loading historical data...
Loading historical data...
Loading historical data...
Loading historical data...
Loading historical data...
Loading historical data...
Other satellites on launch #1 in the year 2025 (2025-01-04 UTC)

THURAYA 4 Visibility forecast

Observer location: undefined°, undefined

Span
Click to sort rows by Start time (UTC) header in descending order
Start Az.
Max El. time (UTC)
Max El. Az.
Max El.
End time (UTC)
End Az.
219 mins2025-02-05 16:01:53.995Z93.677° ESE2025-02-05 18:25:53.995Z99.867° ESE20.326°2025-02-05 19:40:53.995Z90.984° ESE
|